Regional Weather Roundup
Issued by NWS

Home | Current Version | Previous Version | Graphics & Text | Print | Product List | Glossary On
Versions: 1 2 3 4 5 6 7 8 9 10 11 12 13 14 15 16 17 18 19 20 21 22 23 24 25 26 27 28 29 30 31 32 33 34 35 36 37 38 39 40 41 42 43 44 45 46 47 48 49 50
000
ASUS43 KTOP 241559
RWRKS

WEATHER ROUNDUP FOR KANSAS
NATIONAL WEATHER SERVICE GOODLAND KS
1100 AM CDT SUN MAY 24 2015

NOTE:  "FAIR" INDICATES FEW OR NO CLOUDS BELOW 12,000 FEET WITH NO
SIGNIFICANT WEATHER AND/OR OBSTRUCTIONS TO VISIBILITY.

KSZ001>006-013>018-027>032-041>047-241700-
NORTHWEST KANSAS

CITY           SKY/WX    TMP DP  RH WIND       PRES   REMARKS
GOODLAND       CLOUDY    60  55  83 S6        29.88R
HAYS           CLOUDY    63  54  72 S3        29.88F
HILL CITY      CLOUDY    61  57  87 SE7       29.87F
RUSSELL        CLOUDY    64  60  87 S10       29.86F
$$

KSZ061>065-074>080-084>089-241700-
SOUTHWEST KANSAS

CITY           SKY/WX    TMP DP  RH WIND       PRES   REMARKS
DODGE CITY     CLOUDY    61  57  87 SE9       29.89S
ELKHART          N/A     62  53  72 SE3         N/A
GARDEN CITY    CLOUDY    60  57  89 SE16      29.87R
GREAT BEND     CLOUDY    63  57  82 S12       29.88S
LIBERAL        CLOUDY    63  55  77 S10       29.88S
$$

KSZ066>073-081>083-090>101-241700-
SOUTHEAST KANSAS

CITY           SKY/WX    TMP DP  RH WIND       PRES   REMARKS
CHANUTE        LGT RAIN  64  63  96 S6        29.92F
COFFEYVILLE    CLOUDY    65  62  90 CALM      29.91F
HUTCHINSON     CLOUDY    65  59  81 SE6       29.89F
NEWTON         CLOUDY    61  57  88 SE7       29.93S
PARSONS        LGT RAIN  65  62  90 CALM      29.93S
WICHITA INTL   CLOUDY    64  60  87 SE9       29.89F
WICHITA JABRA  CLOUDY    63  60  90 SE7       29.90S
WICHITA MCCONL CLOUDY    64  61  88 SE9       29.90S
WINFIELD       CLOUDY    65  61  87 SE9       29.91F
$$

KSZ007>012-019>026-033>040-048>060-102>105-241700-
NORTHEAST KANSAS

CITY           SKY/WX    TMP DP  RH WIND       PRES   REMARKS
CONCORDIA      CLOUDY    66  61  84 S13       29.86S
EMPORIA        CLOUDY    64  61  90 S8        29.91R
LAWRENCE       CLOUDY    68  62  81 S7        29.90R
MANHATTAN      CLOUDY    66  62  87 SW8       29.87S
OLATHE IND     CLOUDY    66  63  90 S9        29.92R
OLATHE EXE     CLOUDY    66  63  90 S9        29.91R
SALINA         CLOUDY    66  60  81 S10       29.89S
TOPEKA BILLARD CLOUDY    68  62  81 SW8       29.89S
TOPEKA FORBES  CLOUDY    68  61  78 S8        29.89R
$$



USA.gov is the U.S. government's official web portal to all federal, state and local government web resources and services.